| time (UTC) | temp C | wind direction | speed KPH | gust KPH | rain 1hr cm | rain 24hr cm | rain mn cm | humidity % | barometer mb |
| 20260503223940 | 31 | 231 | 11.3 | 24.1 | 0.00 | 0.00 | 0.00 | 16 | 1005.1 |
| 20260503222913 | 32 | 190 | 8.0 | 24.1 | 0.00 | 0.00 | 0.00 | 16 | 1005.3 |
| 20260503220733 | 32 | 233 | 9.7 | 30.6 | 0.00 | 0.00 | 0.00 | 16 | 1005.7 |
| 20260503215741 | 32 | 103 | 11.3 | 30.6 | 0.00 | 0.00 | 0.00 | 17 | 1006.0 |
| 20260503214733 | 32 | 203 | 8.0 | 22.5 | 0.00 | 0.00 | 0.00 | 16 | 1006.0 |
| 20260503213713 | 31 | 227 | 14.5 | 29.0 | 0.00 | 0.00 | 0.00 | 19 | 1006.1 |
| 20260503212642 | 31 | 196 | 11.3 | 29.0 | 0.00 | 0.00 | 0.00 | 18 | 1006.4 |
| 20260503211608 | 31 | 217 | 8.0 | 24.1 | 0.00 | 0.00 | 0.00 | 19 | 1006.4 |
| 20260503210627 | 31 | 197 | 9.7 | 24.1 | 0.00 | 0.00 | 0.00 | 19 | 1006.7 |
| 20260503205556 | 32 | 212 | 9.7 | 27.4 | 0.00 | 0.00 | 0.00 | 19 | 1006.9 |
| 20260503204555 | 31 | 226 | 9.7 | 27.4 | 0.00 | 0.00 | 0.00 | 20 | 1007.0 |
| 20260503203612 | 31 | 206 | 9.7 | 24.1 | 0.00 | 0.00 | 0.00 | 18 | 1007.0 |
| 20260503202556 | 31 | 229 | 9.7 | 24.1 | 0.00 | 0.00 | 0.00 | 18 | 1007.1 |
| 20260503201605 | 31 | 152 | 9.7 | 22.5 | 0.00 | 0.00 | 0.00 | 17 | 1007.2 |
| 20260503200611 | 31 | 240 | 6.4 | 22.5 | 0.00 | 0.00 | 0.00 | 18 | 1007.4 |
| 20260503194439 | 31 | 219 | 8.0 | 20.9 | 0.00 | 0.00 | 0.00 | 18 | 1007.7 |
| 20260503193411 | 30 | 211 | 9.7 | 22.5 | 0.00 | 0.00 | 0.00 | 21 | 1007.9 |
| 20260503192408 | 31 | 219 | 9.7 | 22.5 | 0.00 | 0.00 | 0.00 | 20 | 1008.2 |
| 20260503190234 | 30 | 226 | 8.0 | 24.1 | 0.00 | 0.00 | 0.00 | 21 | 1008.4 |
| 20260503185203 | 30 | 166 | 6.4 | 17.7 | 0.00 | 0.00 | 0.00 | 22 | 1008.6 |
| 20260503184211 | 30 | 219 | 6.4 | 8.0 | 0.00 | 0.00 | 0.00 | 22 | 1008.8 |
| 20260503183327 | 30 | 142 | 8.0 | 29.0 | 0.00 | 0.00 | 0.00 | 21 | 1008.9 |
| 20260503182316 | 30 | 49 | 8.0 | 27.4 | 0.00 | 0.00 | 0.00 | 21 | 1009.0 |
| 20260503181334 | 30 | 229 | 4.8 | 25.7 | 0.00 | 0.00 | 0.00 | 21 | 1009.1 |
| 20260503180334 | 29 | 160 | 9.7 | 24.1 | 0.00 | 0.00 | 0.00 | 23 | 1009.4 |
| 20260503174156 | 28 | 176 | 8.0 | 19.3 | 0.00 | 0.00 | 0.00 | 25 | 1009.6 |
| 20260503173139 | 27 | 58 | 9.7 | 20.9 | 0.00 | 0.00 | 0.00 | 26 | 1009.6 |
| 20260503172135 | 27 | 69 | 4.8 | 20.9 | 0.00 | 0.00 | 0.00 | 26 | 1009.8 |
| 20260503171151 | 27 | 78 | 8.0 | 22.5 | 0.00 | 0.00 | 0.00 | 27 | 1009.7 |
| 20260503170215 | 27 | 56 | 8.0 | 25.7 | 0.00 | 0.00 | 0.00 | 27 | 1009.8 |
| 20260503131343 | 23 | 343 | 9.7 | 19.3 | 0.00 | 0.00 | 0.00 | 28 | 1009.3 |
| 20260503080449 | 22 | 334 | 8.0 | 14.5 | 0.00 | 0.00 | 0.00 | 23 | 1009.5 |
| 20260503071156 | 23 | 350 | 9.7 | 14.5 | 0.00 | 0.00 | 0.00 | 22 | 1009.4 |
| 20260503054926 | 23 | 333 | 8.0 | 14.5 | 0.00 | 0.00 | 0.00 | 21 | 1009.3 |
| 20260503053906 | 24 | 342 | 8.0 | 12.9 | 0.00 | 0.00 | 0.00 | 21 | 1009.1 |
| 20260503052834 | 24 | 334 | 6.4 | 14.5 | 0.00 | 0.00 | 0.00 | 21 | 1009.2 |
| 20260503051847 | 23 | 329 | 8.0 | 14.5 | 0.00 | 0.00 | 0.00 | 21 | 1009.3 |
| 20260503050852 | 23 | 321 | 6.4 | 11.3 | 0.00 | 0.00 | 0.00 | 22 | 1009.3 |
| 20260503045832 | 24 | 334 | 4.8 | 9.7 | 0.00 | 0.00 | 0.00 | 21 | 1009.2 |
| 20260503044842 | 25 | 328 | 4.8 | 11.3 | 0.00 | 0.00 | 0.00 | 21 | 1009.1 |
| 20260503043905 | 25 | 326 | 6.4 | 12.9 | 0.00 | 0.00 | 0.00 | 21 | 1009.0 |
| 20260503042917 | 24 | 328 | 6.4 | 12.9 | 0.00 | 0.00 | 0.00 | 21 | 1008.9 |
| 20260503041915 | 22 | 6 | 0.0 | 9.7 | 0.00 | 0.00 | 0.00 | 23 | 1008.9 |
| 20260503040918 | 22 | 58 | 0.0 | 0.0 | 0.00 | 0.00 | 0.00 | 23 | 1008.8 |
| 20260503035859 | 22 | 58 | 0.0 | 0.0 | 0.00 | 0.00 | 0.00 | 23 | 1008.7 |
| 20260503034911 | 23 | 58 | 0.0 | 0.0 | 0.00 | 0.00 | 0.00 | 22 | 1008.5 |
| 20260503033916 | 23 | 196 | 0.0 | 0.0 | 0.00 | 0.00 | 0.00 | 22 | 1008.5 |
| 20260503032909 | 23 | 197 | 0.0 | 0.0 | 0.00 | 0.00 | 0.00 | 22 | 1008.5 |
| 20260503031926 | 23 | 197 | 0.0 | 0.0 | 0.00 | 0.00 | 0.00 | 21 | 1008.4 |
| 20260503030942 | 24 | 197 | 0.0 | 0.0 | 0.00 | 0.00 | 0.00 | 21 | 1008.3 |
| 20260503025921 | 24 | 197 | 0.0 | 0.0 | 0.00 | 0.00 | 0.00 | 21 | 1008.3 |
| 20260503024846 | 25 | 196 | 0.0 | 0.0 | 0.00 | 0.00 | 0.00 | 20 | 1008.1 |
| 20260503023839 | 26 | 197 | 0.0 | 0.0 | 0.00 | 0.00 | 0.00 | 19 | 1008.0 |
| 20260503022821 | 27 | 197 | 0.0 | 0.0 | 0.00 | 0.00 | 0.00 | 18 | 1007.9 |
| 20260503021830 | 27 | 207 | 1.6 | 0.0 | 0.00 | 0.00 | 0.00 | 18 | 1007.9 |
| 20260503020822 | 27 | 195 | 1.6 | 8.0 | 0.00 | 0.00 | 0.00 | 18 | 1008.0 |
| 20260503015843 | 28 | 179 | 4.8 | 9.7 | 0.00 | 0.00 | 0.00 | 18 | 1007.8 |
| 20260503014901 | 28 | 233 | 4.8 | 12.9 | 0.00 | 0.00 | 0.00 | 18 | 1007.8 |
| 20260503013908 | 28 | 200 | 4.8 | 12.9 | 0.00 | 0.00 | 0.00 | 18 | 1007.8 |
| 20260503012908 | 28 | 179 | 3.2 | 9.7 | 0.00 | 0.00 | 0.00 | 18 | 1007.8 |
| 20260503011837 | 29 | 166 | 1.6 | 11.3 | 0.00 | 0.00 | 0.00 | 17 | 1007.8 |
| 20260503005710 | 29 | 231 | 8.0 | 19.3 | 0.00 | 0.00 | 0.00 | 17 | 1007.9 |
| 20260503004719 | 30 | 223 | 6.4 | 19.3 | 0.00 | 0.00 | 0.00 | 15 | 1007.9 |
| 20260503003652 | 30 | 224 | 3.2 | 17.7 | 0.00 | 0.00 | 0.00 | 16 | 1007.9 |
| 20260503001511 | 30 | 160 | 6.4 | 16.1 | 0.00 | 0.00 | 0.00 | 15 | 1007.8 |
| 20260503000521 | 30 | 255 | 4.8 | 19.3 | 0.00 | 0.00 | 0.00 | 15 | 1007.9 |
| 20260502235503 | 30 | 241 | 9.7 | 19.3 | 0.00 | 0.00 | 0.00 | 15 | 1007.8 |
| 20260502234439 | 31 | 241 | 6.4 | 17.7 | 0.00 | 0.00 | 0.00 | 14 | 1007.9 |
| 20260502232320 | 31 | 238 | 6.4 | 24.1 | 0.00 | 0.00 | 0.00 | 14 | 1007.9 |
| 20260502231254 | 30 | 117 | 6.4 | 24.1 | 0.00 | 0.00 | 0.00 | 14 | 1007.9 |
| 20260502230316 | 30 | 104 | 4.8 | 19.3 | 0.00 | 0.00 | 0.00 | 15 | 1007.9 |
| 20260502225336 | 31 | 134 | 3.2 | 27.4 | 0.00 | 0.00 | 0.00 | 15 | 1008.1 |